Hourly Data Report for October 11, 2013

All times are specified in Local Standard Time (LST). Add 1 hour to adjust for Daylight Saving Time where and when it is observed.

FORT LIARD
NORTHWEST TERRITORIES

60°14'00.000" N
123°28'00.000" W
213.40 m
2201579
71497
WJL

Download Data

Hourly Data (October 2013)
Hourly Data Report for October 11, 2013
Temp Definition
°C
Dew Point Temp Definition
°C
Rel Hum Definition
%
Wind Dir Definition
10's deg

Wind Spd Definition
km/h
Visibility Definition
km
Stn Press Definition
kPa
Hmdx Definition


Wind Chill Definition


Weather Definition


TIME
00:00 2.8 -2.9 66 22 9   98.28     LegendNANA
01:00 2.6 -3.3 65 20 15   98.33     LegendNANA
02:00 1.1 -2.9 75 21 15   98.40     LegendNANA
03:00 0.8 -3.2 75 21 11   98.49     LegendNANA
04:00 -1.2 -3.2 86   0   98.57     LegendNANA
05:00 -2.7 -3.8 92   0   98.66     LegendNANA
06:00 -2.9 -4.0 92   0   98.72     LegendNANA
07:00 -1.1 -1.8 95   0   98.77     LegendNANA
08:00 0.1 -0.4 96 19 4   98.78     LegendNANA
09:00 -0.1 -0.6 96 18 4   98.79   -1 LegendNANA
10:00 0.3 -0.1 97 21 7   98.82     LegendNANA
11:00 2.7 -0.5 79 23 7   98.82     LegendNANA
12:00 6.2 -1.2 59 22 7   98.82     LegendNANA
13:00 8.4 -2.1 48 20 6   98.81     LegendNANA
14:00 10.6 -1.6 43 21 6   98.78     LegendNANA
15:00 10.6 -1.2 44 23 17   98.77     LegendNANA
16:00 11.4 -1.4 41 22 17   98.78     LegendNANA
17:00 10.6 -2.0 41 23 17   98.79     LegendNANA
18:00 7.2 -1.1 56 23 6   98.82     LegendNANA
19:00 3.7 -0.8 72 21 4   98.85     LegendNANA
20:00 1.7 -1.0 82 23 4   98.87     LegendNANA
21:00 0.7 -1.4 86 23 7   98.92     LegendNANA
22:00 -1.5 -2.7 92   0   98.98     LegendNANA
23:00 -2.1 -3.2 92 22 6   99.02   -4 LegendNANA

Notes on Data Quality.

Legend

  • E = Estimated
  • M = Missing
  • NA = Not Available
  • ‡ = Partner data that is not subject to review by the National Climate Archives
Date modified: